• In Netherlands
  • List of Countries
  • For 7 days
  • Water Temperature
  • Satellite Maps
  • Weather Map
  • Weather Widgets
  • user-avatar
    Login

    Hourly Weather Ashtarak

    Today, 30 April, Sunday

    Time Temperature Precipitation Wind Pressure Humidity
    00:00 +11°C° 0.5 mm 1 mps 657 mmHg 83%
    01:00 +10°C° 0.2 mm 1 mps 657 mmHg 84%
    02:00 +10°C° 0.2 mm 1 mps 657 mmHg 85%
    03:00 +9°C° 0 mm 1 mps 656 mmHg 86%
    04:00 +9°C° 0.1 mm 1 mps 656 mmHg 85%
    05:00 +9°C° 0.1 mm 1 mps 656 mmHg 83%
    06:00 +10°C° 0.1 mm 1 mps 657 mmHg 82%
    07:00 +12°C° 0.1 mm 1 mps 657 mmHg 72%
    08:00 +14°C° 0.1 mm 1 mps 658 mmHg 62%
    09:00 +16°C° 0 mm 1 mps 658 mmHg 53%
    10:00 +17°C° 0.1 mm 2 mps 658 mmHg 49%
    11:00 +18°C° 0.1 mm 2 mps 658 mmHg 46%
    12:00 +19°C° 0.1 mm 2 mps 659 mmHg 43%
    13:00 +20°C° 0.3 mm 2 mps 658 mmHg 42%
    14:00 +20°C° 0.3 mm 2 mps 658 mmHg 42%
    15:00 +20°C° 0 mm 2 mps 658 mmHg 43%
    16:00 +19°C° 0.2 mm 2 mps 658 mmHg 46%
    17:00 +18°C° 0.2 mm 2 mps 657 mmHg 50%
    18:00 +17°C° 0.2 mm 2 mps 657 mmHg 54%
    19:00 +15°C° 0.1 mm 1 mps 657 mmHg 60%
    20:00 +12°C° 0.1 mm 1 mps 656 mmHg 65%
    21:00 +10°C° 0.1 mm 1 mps 656 mmHg 71%
    22:00 +10°C° 0 mm 1 mps 656 mmHg 71%
    23:00 +9°C° 0 mm 1 mps 656 mmHg 71%

    Tomorrow, 1 May, Monday

    Time Temperature Precipitation Wind Pressure Humidity
    00:00 +9°C° 0 mm 1 mps 656 mmHg 72%
    01:00 +8°C° 0 mm 1 mps 656 mmHg 71%
    02:00 +8°C° 0 mm 1 mps 656 mmHg 71%
    03:00 +8°C° 0 mm 1 mps 656 mmHg 70%
    04:00 +8°C° 0 mm 1 mps 656 mmHg 67%
    05:00 +9°C° 0 mm 1 mps 657 mmHg 64%
    06:00 +10°C° 0 mm 1 mps 657 mmHg 61%
    07:00 +13°C° 0 mm 1 mps 658 mmHg 54%
    08:00 +15°C° 0 mm 1 mps 658 mmHg 47%
    09:00 +19°C° 0 mm 1 mps 659 mmHg 39%
    10:00 +19°C° 0 mm 2 mps 659 mmHg 35%
    11:00 +21°C° 0 mm 2 mps 659 mmHg 32%
    12:00 +23°C° 0 mm 2 mps 659 mmHg 28%
    13:00 +23°C° 0 mm 2 mps 659 mmHg 27%
    14:00 +23°C° 0 mm 2 mps 659 mmHg 27%
    15:00 +24°C° 0 mm 2 mps 658 mmHg 26%
    16:00 +22°C° 0 mm 1 mps 658 mmHg 33%
    17:00 +20°C° 0 mm 1 mps 657 mmHg 40%
    18:00 +19°C° 0 mm 1 mps 657 mmHg 47%
    19:00 +16°C° 0 mm 1 mps 657 mmHg 50%
    20:00 +15°C° 0 mm 1 mps 657 mmHg 53%
    21:00 +13°C° 0 mm 1 mps 657 mmHg 56%
    22:00 +13°C° 0 mm 1 mps 657 mmHg 60%
    23:00 +12°C° 0 mm 1 mps 657 mmHg 64%

    Day after tomorrow, 2 May, Tuesday

    Time Temperature Precipitation Wind Pressure Humidity
    00:00 +12°C° 0 mm 1 mps 657 mmHg 68%
    01:00 +12°C° 0.1 mm 1 mps 657 mmHg 70%
    02:00 +12°C° 0.1 mm 1 mps 657 mmHg 71%
    03:00 +12°C° 0.1 mm 1 mps 657 mmHg 73%
    04:00 +12°C° 0.4 mm 1 mps 657 mmHg 73%
    05:00 +12°C° 0.4 mm 1 mps 657 mmHg 72%
    06:00 +12°C° 0.4 mm 1 mps 657 mmHg 72%
    07:00 +14°C° 0.1 mm 1 mps 658 mmHg 65%
    08:00 +16°C° 0.1 mm 1 mps 658 mmHg 58%
    09:00 +19°C° 0.1 mm 1 mps 659 mmHg 50%
    10:00 +21°C° 0 mm 1 mps 659 mmHg 46%
    11:00 +22°C° 0 mm 1 mps 659 mmHg 42%
    12:00 +23°C° 0 mm 2 mps 659 mmHg 38%
    13:00 +23°C° 0.2 mm 2 mps 658 mmHg 39%
    14:00 +23°C° 0.2 mm 2 mps 658 mmHg 40%
    15:00 +21°C° 0.2 mm 2 mps 657 mmHg 41%
    16:00 +20°C° 0.3 mm 2 mps 657 mmHg 48%
    17:00 +19°C° 0.3 mm 2 mps 656 mmHg 55%
    18:00 +18°C° 0.3 mm 1 mps 656 mmHg 61%
    19:00 +16°C° 1 mm 1 mps 656 mmHg 67%
    20:00 +15°C° 1 mm 1 mps 656 mmHg 72%
    21:00 +14°C° 1 mm 1 mps 656 mmHg 78%
    22:00 +14°C° 0.9 mm 1 mps 656 mmHg 79%
    23:00 +14°C° 0.9 mm 1 mps 656 mmHg 81%

    3 May, Wednesday

    Time Temperature Precipitation Wind Pressure Humidity
    00:00 +13°C° 0.9 mm 1 mps 655 mmHg 83%
    01:00 +13°C° 0.4 mm 1 mps 655 mmHg 84%
    02:00 +12°C° 0.4 mm 1 mps 655 mmHg 85%
    03:00 +12°C° 0.4 mm 1 mps 654 mmHg 86%
    04:00 +12°C° 0.4 mm 1 mps 654 mmHg 85%
    05:00 +12°C° 0.4 mm 1 mps 654 mmHg 85%
    06:00 +13°C° 0.4 mm 1 mps 654 mmHg 84%
    07:00 +14°C° 0.5 mm 1 mps 655 mmHg 78%
    08:00 +16°C° 0.5 mm 1 mps 655 mmHg 72%
    09:00 +17°C° 0.5 mm 2 mps 655 mmHg 66%
    10:00 +18°C° 0.6 mm 2 mps 655 mmHg 61%
    11:00 +19°C° 0.6 mm 2 mps 655 mmHg 56%
    12:00 +20°C° 0.6 mm 2 mps 655 mmHg 50%
    13:00 +20°C° 1.1 mm 2 mps 655 mmHg 51%
    14:00 +20°C° 1.1 mm 2 mps 655 mmHg 52%
    15:00 +20°C° 1.1 mm 2 mps 655 mmHg 53%
    16:00 +19°C° 1 mm 2 mps 655 mmHg 57%
    17:00 +18°C° 1 mm 2 mps 655 mmHg 61%
    18:00 +18°C° 1 mm 1 mps 655 mmHg 64%
    19:00 +15°C° 0.4 mm 1 mps 655 mmHg 68%
    20:00 +14°C° 0.4 mm 1 mps 655 mmHg 72%
    21:00 +12°C° 0.4 mm 1 mps 655 mmHg 75%
    22:00 +12°C° 0.1 mm 1 mps 654 mmHg 76%
    23:00 +11°C° 0.1 mm 1 mps 654 mmHg 78%

    4 May, Thursday

    Time Temperature Precipitation Wind Pressure Humidity
    00:00 +10°C° 0.1 mm 1 mps 654 mmHg 79%
    01:00 +10°C° 0 mm 1 mps 654 mmHg 79%
    02:00 +10°C° 0 mm 1 mps 654 mmHg 79%
    03:00 +10°C° 0 mm 1 mps 654 mmHg 79%
    04:00 +10°C° 0.1 mm 1 mps 654 mmHg 77%
    05:00 +11°C° 0.1 mm 1 mps 654 mmHg 76%
    06:00 +10°C° 0.1 mm 0 mps 654 mmHg 75%
    07:00 +13°C° 0.1 mm 1 mps 655 mmHg 67%
    08:00 +15°C° 0.1 mm 1 mps 655 mmHg 60%
    09:00 +18°C° 0.1 mm 1 mps 656 mmHg 53%
    10:00 +19°C° 0.1 mm 1 mps 656 mmHg 49%
    11:00 +20°C° 0.1 mm 1 mps 656 mmHg 45%
    12:00 +22°C° 0.1 mm 1 mps 656 mmHg 41%
    13:00 +22°C° 0.2 mm 1 mps 656 mmHg 41%
    14:00 +22°C° 0.2 mm 1 mps 655 mmHg 41%
    15:00 +22°C° 0.2 mm 1 mps 655 mmHg 41%
    16:00 +21°C° 0.3 mm 1 mps 655 mmHg 46%
    17:00 +20°C° 0.3 mm 1 mps 655 mmHg 51%
    18:00 +19°C° 0.3 mm 1 mps 655 mmHg 56%
    19:00 +16°C° 0.3 mm 1 mps 655 mmHg 61%
    20:00 +14°C° 0.3 mm 1 mps 655 mmHg 66%
    21:00 +12°C° 0.3 mm 1 mps 655 mmHg 71%
    22:00 +12°C° 0.2 mm 1 mps 655 mmHg 73%
    23:00 +11°C° 0.2 mm 1 mps 655 mmHg 75%

    5 May, Friday

    Time Temperature Precipitation Wind Pressure Humidity
    00:00 +11°C° 0.2 mm 1 mps 655 mmHg 76%
    01:00 +11°C° 0.2 mm 1 mps 655 mmHg 77%
    02:00 +10°C° 0.2 mm 1 mps 654 mmHg 78%
    03:00 +10°C° 0.2 mm 1 mps 654 mmHg 79%
    04:00 +10°C° 0.2 mm 1 mps 655 mmHg 77%
    05:00 +11°C° 0.2 mm 1 mps 655 mmHg 76%
    06:00 +12°C° 0.2 mm 1 mps 656 mmHg 74%
    07:00 +14°C° 0.3 mm 1 mps 656 mmHg 67%
    08:00 +16°C° 0.3 mm 1 mps 657 mmHg 61%
    09:00 +19°C° 0.3 mm 1 mps 657 mmHg 54%
    10:00 +19°C° 0.4 mm 1 mps 657 mmHg 52%
    11:00 +19°C° 0.4 mm 2 mps 657 mmHg 50%
    12:00 +20°C° 0.4 mm 2 mps 657 mmHg 48%
    13:00 +21°C° 0.7 mm 2 mps 656 mmHg 48%
    14:00 +21°C° 0.7 mm 2 mps 656 mmHg 49%
    15:00 +21°C° 0.7 mm 2 mps 655 mmHg 49%
    16:00 +20°C° 0.8 mm 2 mps 655 mmHg 53%
    17:00 +20°C° 0.8 mm 1 mps 655 mmHg 57%
    18:00 +19°C° 0.8 mm 1 mps 655 mmHg 62%
    19:00 +18°C° 0.8 mm 1 mps 655 mmHg 66%
    20:00 +15°C° 0.8 mm 1 mps 655 mmHg 70%
    21:00 +13°C° 0.8 mm 1 mps 655 mmHg 74%
    22:00 +13°C° 0.4 mm 1 mps 655 mmHg 76%
    23:00 +12°C° 0.4 mm 1 mps 655 mmHg 78%
    Show more